Weather Roundup
Issued by NWS Springfield, MO

Home | Current Version | Previous Version | Text Only | Print | Product List | Glossary On
Versions: 1 2 3 4 5 6 7 8 9 10 11 12 13 14 15 16 17 18 19 20 21 22 23 24 25 26 27 28 29 30 31 32 33 34 35 36 37 38 39 40 41 42 43 44 45 46 47 48 49 50
000
NZUS99 KSGF 251257
HRRSGF

HOURLY WEATHER
NATIONAL WEATHER SERVICE SPRINGFIELD MO
800 AM CDT SUN JUN 25 2017

......SGF CWA......

CITY           SKY/WX    TMP DP  RH WIND       PRES   REMARKS
SPRINGFIELD    MOSUNNY   66  53  63 SW5       30.28S
JOPLIN         MOSUNNY   71  60  68 S3        30.28S
WEST PLAINS    MOSUNNY   67  52  58 W3        30.29R
ROLLA          SUNNY     63  51  65 SW7       30.25R
BRANSON        PTSUNNY   64  55  72 CALM      30.30R

......SURROUNDING SGF CWA......

CITY           SKY/WX    TMP DP  RH WIND       PRES   REMARKS
CHANUTE        CLOUDY    70  53  54 CALM      30.28R
PARSONS        MOSUNNY   68  57  68 CALM      30.29R
COFFEYVILLE    SUNNY     68  59  73 CALM      30.27R
EMPORIA        SUNNY     64  59  83 CALM      30.29R
HARRISON AR    CLOUDY    64  55  72 W5        30.30R

......KANSAS AND MISSOURI......

CITY           SKY/WX    TMP DP  RH WIND       PRES   REMARKS
KANSAS CTY INT SUNNY     64  51  62 N6        30.27S
SEDALIA        SUNNY     68  55  63 W9        30.26R
ST JOSEPH      SUNNY     61  52  72 NW3       30.30R
ST LOUIS       MOSUNNY   70  50  49 W13       30.22R
WICHITA        CLOUDY    69  56  62 S5        30.29R
TOPEKA         SUNNY     66  55  67 NW6       30.29R
OLATHE         SUNNY     65  53  65 NW8       30.28R

......TENNESSEE......

CITY           SKY/WX    TMP DP  RH WIND       PRES   REMARKS
MEMPHIS        NOT AVBL
NASHVILLE      MOSUNNY   70  55  59 NW7       30.23R

......ARKANSAS.......

CITY           SKY/WX    TMP DP  RH WIND       PRES   REMARKS
FAYETTEVILLE   MOSUNNY   62  59  90 S3        30.30R
FT SMITH       SUNNY     71  60  68 NE5       30.26R
LITTLE ROCK    PTSUNNY   72  61  68 N5        30.25R

......OKLAHOMA.......

CITY           SKY/WX    TMP DP  RH WIND       PRES   REMARKS
TULSA          MOSUNNY   71  61  70 E3        30.25S
PONCA CITY     SUNNY     71  60  68 CALM      30.27R
MCALESTER      SUNNY     73  63  70 CALM      30.26R
OKLAHOMA CITY  MOSUNNY   70  59  68 S5        30.26R

......IOWA............

CITY           SKY/WX    TMP DP  RH WIND       PRES   REMARKS
DES MOINES     NOT AVBL
QUAD CITIES    SUNNY     62  49  62 W10       30.17R

......ILLINOIS........

CITY           SKY/WX    TMP DP  RH WIND       PRES   REMARKS
QUINCY         NOT AVBL
CHICAGO        MOSUNNY   60  49  66 W12       30.10R




USA.gov is the U.S. government's official web portal to all federal, state and local government web resources and services.